SL-14 DEB, 45291

Orbit data source: Space-Track

SL-14 DEB, 45291 is space debris in LEO originally from a launch on Thu, 15 Aug 1991 UTC launched from the Plesetsk Missile And Space Complex (PKMTR). Debris objects in space refer to the collection of defunct objects orbiting the Earth. Examples of debris include non-operational satellites, rocket bodies, and fragments generated from explosions, collisions, or faulty payload assembly.

Loading next visibility...
Identifier
45291, 1991-056AD
Orbit
LEO
Country
Flag of CISCIS
Related business
Manufacturer
Unknown
Mission
Spacecraft
Bus & Motor
Unknown
Mass
Unknown
Launch date (UTC)
1991-08-15 (35 years ago)
Launch vehicle
Unknown
Launch site
Plesetsk Missile And Space Complex (PKMTR)
Object type
Payload
Rocket body
Debris
Shape & HBR
Unknown shape, 0.1 m
Radar Cross Section
Medium (>0.1 m² and <1 m²)

Expand to show TLE details & history
Last TLE update: 16 hours ago

TLE from 16 hours ago
0 SL-14 DEB
1 45291U 91056AD  26202.53879116 -.00000282  00000-0 -83110-3 0  9994
2 45291  82.5493 133.2651 0033804 233.7953 126.0039 13.10964551307078
Epoch: 2026-07-21T12:55Z
TLE epoch observation values (Epoch: 2026-07-21T12:55:51.556Z)
Latitude
-0.00001°
Longitude
-0.00676°
Altitude
1,237.386 km
Speed
7.229 km/s
True Right ascension
08h 53m 03s
True Declination
0° 00' 00"
Sunlit
Object was in daylight at epoch
Visualization orbit readout
Latitude
Unknown
Longitude
Unknown
Altitude
Unknown
Speed
Unknown
Apparent Right ascension
Unknown
Apparent Declination
Unknown
Sunlit
N/A
Visualization observer readout
Local Sidereal Time
17:40:16
Azimuth
Unknown
Elevation
Unknown
Doppler factor
Unknown
Orbital elements
Apogee altitude
1,242.357 km
Perigee altitude
1,191.01 km
Semi-major axis
7,594.82 km
Eccentricity
0.00338
Inclination
82.5493°
RAAN
133.2651°
Arg. of periapsis
233.7953°
True anomaly
126.31649°
Mean anomaly
126.0039°
Eccentric anomaly
126.16027°
Mean motion
3.27919 °/min
Orbital period
109.78 mins
BSTAR
-0.0008311
Loading maneuver chart data...
Computing Atmospheric mass density...
Loading historical data...
Loading historical data...
Loading historical data...
Loading historical data...
Loading historical data...
Loading historical data...
Loading historical data...

Documentation

Showing up to 5 results
|